| time (UTC) | temp C | wind direction | speed KPH | gust KPH | rain 1hr cm | rain 24hr cm | rain mn cm | humidity % | barometer mb |
| 20260902163343 | 31 | 275 | 8.0 | 17.7 | 0.00 | 0.00 | 0.00 | 80 | 1014.6 |
| 20260902162830 | 31 | 327 | 3.2 | 14.5 | 0.00 | 0.00 | 0.00 | 81 | 1014.7 |
| 20260902162354 | 31 | 23 | 4.8 | 14.5 | 0.00 | 0.00 | 0.00 | 82 | 1014.6 |
| 20260902161905 | 31 | 236 | 9.7 | 16.1 | 0.00 | 0.00 | 0.00 | 82 | 1014.7 |
| 20260902161327 | 30 | 286 | 3.2 | 16.1 | 0.00 | 0.00 | 0.00 | 82 | 1014.7 |
| 20260902160850 | 30 | 57 | 4.8 | 19.3 | 0.00 | 0.00 | 0.00 | 82 | 1014.7 |
| 20260902160340 | 30 | 336 | 6.4 | 19.3 | 0.00 | 0.00 | 0.00 | 82 | 1014.7 |
| 20260902155847 | 30 | 301 | 6.4 | 14.5 | 0.00 | 0.00 | 0.00 | 82 | 1014.7 |
| 20260902155329 | 30 | 284 | 4.8 | 14.5 | 0.00 | 0.00 | 0.00 | 82 | 1014.8 |
| 20260902154834 | 29 | 309 | 6.4 | 14.5 | 0.00 | 0.00 | 0.00 | 82 | 1014.9 |
| 20260902154320 | 29 | 275 | 4.8 | 14.5 | 0.00 | 0.00 | 0.00 | 82 | 1014.8 |
| 20260902153828 | 29 | 273 | 9.7 | 19.3 | 0.00 | 0.00 | 0.00 | 83 | 1014.9 |
| 20260902153331 | 29 | 283 | 6.4 | 19.3 | 0.00 | 0.00 | 0.00 | 83 | 1014.8 |
| 20260902152819 | 29 | 241 | 8.0 | 17.7 | 0.00 | 0.00 | 0.00 | 83 | 1014.6 |
| 20260902152318 | 28 | 265 | 12.9 | 25.7 | 0.00 | 0.00 | 0.00 | 83 | 1014.7 |
| 20260902151824 | 28 | 263 | 11.3 | 25.7 | 0.00 | 0.00 | 0.00 | 83 | 1014.7 |
| 20260902151330 | 28 | 320 | 4.8 | 17.7 | 0.00 | 0.00 | 0.00 | 83 | 1014.6 |
| 20260902150836 | 28 | 236 | 9.7 | 16.1 | 0.00 | 0.00 | 0.00 | 83 | 1014.7 |
| 20260902150342 | 28 | 244 | 4.8 | 14.5 | 0.00 | 0.00 | 0.00 | 83 | 1014.8 |
| 20260902145834 | 27 | 265 | 8.0 | 14.5 | 0.00 | 0.00 | 0.00 | 83 | 1014.7 |
| 20260902145337 | 27 | 270 | 4.8 | 14.5 | 0.00 | 0.00 | 0.00 | 83 | 1014.7 |
| 20260902144842 | 27 | 250 | 8.0 | 14.5 | 0.00 | 0.00 | 0.00 | 83 | 1014.7 |
| 20260902144328 | 27 | 302 | 3.2 | 9.7 | 0.00 | 0.00 | 0.00 | 83 | 1014.8 |
| 20260902143830 | 26 | 304 | 3.2 | 14.5 | 0.00 | 0.00 | 0.00 | 83 | 1014.8 |
| 20260902143401 | 26 | 331 | 6.4 | 14.5 | 0.00 | 0.00 | 0.00 | 83 | 1014.9 |
| 20260902142844 | 26 | 302 | 1.6 | 8.0 | 0.00 | 0.00 | 0.00 | 83 | 1014.9 |
| 20260902142327 | 26 | 304 | 3.2 | 6.4 | 0.00 | 0.00 | 0.00 | 82 | 1014.8 |
| 20260902141829 | 25 | 317 | 4.8 | 6.4 | 0.00 | 0.00 | 0.00 | 82 | 1014.8 |
| 20260902141334 | 25 | 325 | 1.6 | 6.4 | 0.00 | 0.00 | 0.00 | 82 | 1014.8 |
| 20260902140819 | 25 | 323 | 4.8 | 6.4 | 0.00 | 0.00 | 0.00 | 82 | 1014.8 |
| 20260902140323 | 25 | 323 | 1.6 | 6.4 | 0.00 | 0.00 | 0.00 | 82 | 1014.8 |
| 20260902135829 | 25 | 324 | 3.2 | 6.4 | 0.00 | 0.00 | 0.00 | 82 | 1014.8 |
| 20260902135402 | 25 | 324 | 3.2 | 6.4 | 0.00 | 0.00 | 0.00 | 82 | 1014.9 |
| 20260902134825 | 25 | 323 | 1.6 | 6.4 | 0.00 | 0.00 | 0.00 | 81 | 1014.9 |
| 20260902134330 | 25 | 325 | 3.2 | 6.4 | 0.00 | 0.00 | 0.00 | 81 | 1014.8 |
| 20260902133324 | 25 | 326 | 3.2 | 4.8 | 0.00 | 0.00 | 0.00 | 81 | 1014.9 |
| 20260902132829 | 25 | 326 | 0.0 | 6.4 | 0.00 | 0.00 | 0.00 | 81 | 1014.8 |
| 20260902132335 | 25 | 292 | 3.2 | 6.4 | 0.00 | 0.00 | 0.00 | 81 | 1014.8 |
| 20260902131842 | 25 | 292 | 3.2 | 6.4 | 0.00 | 0.00 | 0.00 | 81 | 1014.7 |
| 20260902131333 | 25 | 303 | 3.2 | 6.4 | 0.00 | 0.00 | 0.00 | 81 | 1014.7 |
| 20260902130839 | 24 | 301 | 4.8 | 6.4 | 0.00 | 0.00 | 0.00 | 81 | 1014.6 |
| 20260902130326 | 24 | 312 | 4.8 | 6.4 | 0.00 | 0.00 | 0.00 | 81 | 1014.6 |
| 20260902125826 | 24 | 300 | 4.8 | 6.4 | 0.00 | 0.00 | 0.00 | 81 | 1014.4 |
| 20260902125327 | 24 | 305 | 3.2 | 6.4 | 0.00 | 0.00 | 0.00 | 80 | 1014.2 |
| 20260902124833 | 24 | 269 | 4.8 | 9.7 | 0.00 | 0.00 | 0.00 | 80 | 1014.2 |
| 20260902124318 | 24 | 282 | 4.8 | 6.4 | 0.00 | 0.00 | 0.00 | 80 | 1014.2 |
| 20260902123822 | 24 | 281 | 3.2 | 6.4 | 0.00 | 0.00 | 0.00 | 80 | 1014.2 |
| 20260902123336 | 24 | 276 | 3.2 | 6.4 | 0.00 | 0.00 | 0.00 | 80 | 1014.0 |
| 20260902122847 | 24 | 277 | 3.2 | 6.4 | 0.00 | 0.00 | 0.00 | 80 | 1014.0 |
| 20260902122350 | 24 | 263 | 4.8 | 6.4 | 0.00 | 0.00 | 0.00 | 80 | 1013.9 |
| 20260902121833 | 24 | 257 | 3.2 | 6.4 | 0.00 | 0.00 | 0.00 | 80 | 1013.9 |
| 20260902121317 | 24 | 255 | 3.2 | 6.4 | 0.00 | 0.00 | 0.00 | 80 | 1013.9 |
| 20260902120822 | 24 | 254 | 3.2 | 6.4 | 0.00 | 0.00 | 0.00 | 80 | 1013.9 |
| 20260902120357 | 24 | 254 | 3.2 | 9.7 | 0.00 | 0.00 | 0.00 | 79 | 1013.9 |
| 20260902115822 | 24 | 257 | 4.8 | 9.7 | 0.00 | 0.00 | 0.00 | 79 | 1013.9 |
| 20260902115327 | 24 | 258 | 3.2 | 6.4 | 0.00 | 0.00 | 0.00 | 79 | 1013.8 |
| 20260902114834 | 24 | 258 | 3.2 | 6.4 | 0.00 | 0.00 | 0.00 | 79 | 1013.8 |
| 20260902114322 | 24 | 258 | 4.8 | 6.4 | 0.00 | 0.00 | 0.00 | 79 | 1013.8 |
| 20260902113823 | 24 | 258 | 4.8 | 6.4 | 0.00 | 0.00 | 0.00 | 79 | 1013.9 |
| 20260902113330 | 24 | 325 | 4.8 | 6.4 | 0.00 | 0.00 | 0.00 | 79 | 1013.8 |
| 20260902112840 | 24 | 325 | 3.2 | 6.4 | 0.00 | 0.00 | 0.00 | 79 | 1013.8 |
| 20260902112332 | 23 | 325 | 4.8 | 6.4 | 0.00 | 0.00 | 0.00 | 79 | 1013.8 |
| 20260902031828 | 27 | 90 | 0.0 | 0.0 | 0.00 | 0.00 | 0.00 | 63 | 1014.0 |
| 20260902031331 | 27 | 90 | 0.0 | 0.0 | 0.00 | 0.00 | 0.00 | 62 | 1013.9 |
| 20260902030818 | 27 | 90 | 0.0 | 0.0 | 0.00 | 0.00 | 0.00 | 62 | 1013.9 |
| 20260902030319 | 27 | 90 | 0.0 | 0.0 | 0.00 | 0.00 | 0.00 | 62 | 1013.9 |
| 20260902025851 | 28 | 90 | 0.0 | 3.2 | 0.00 | 0.00 | 0.00 | 62 | 1013.8 |
| 20260902025333 | 28 | 90 | 1.6 | 4.8 | 0.00 | 0.00 | 0.00 | 61 | 1013.8 |
| 20260902024820 | 28 | 90 | 1.6 | 4.8 | 0.00 | 0.00 | 0.00 | 61 | 1013.8 |
| 20260902024323 | 28 | 90 | 3.2 | 4.8 | 0.00 | 0.00 | 0.00 | 61 | 1013.7 |
| 20260902023824 | 28 | 90 | 1.6 | 4.8 | 0.00 | 0.00 | 0.00 | 61 | 1013.6 |
| 20260902023339 | 28 | 90 | 3.2 | 4.8 | 0.00 | 0.00 | 0.00 | 60 | 1013.6 |
| 20260902022845 | 28 | 90 | 3.2 | 3.2 | 0.00 | 0.00 | 0.00 | 60 | 1013.5 |
| 20260902022325 | 28 | 90 | 0.0 | 0.0 | 0.00 | 0.00 | 0.00 | 60 | 1013.4 |
| 20260902021829 | 28 | 90 | 0.0 | 0.0 | 0.00 | 0.00 | 0.00 | 60 | 1013.4 |
| 20260902021333 | 28 | 90 | 0.0 | 3.2 | 0.00 | 0.00 | 0.00 | 59 | 1013.4 |
| 20260902020818 | 28 | 90 | 0.0 | 4.8 | 0.00 | 0.00 | 0.00 | 59 | 1013.2 |
| 20260902020323 | 28 | 90 | 1.6 | 4.8 | 0.00 | 0.00 | 0.00 | 59 | 1013.1 |
| 20260902015826 | 29 | 90 | 1.6 | 6.4 | 0.00 | 0.00 | 0.00 | 59 | 1013.0 |
| 20260902015330 | 29 | 89 | 3.2 | 6.4 | 0.00 | 0.00 | 0.00 | 58 | 1013.0 |
| 20260902014817 | 29 | 96 | 3.2 | 9.7 | 0.00 | 0.00 | 0.00 | 58 | 1013.0 |
| 20260902014350 | 29 | 100 | 4.8 | 11.3 | 0.00 | 0.00 | 0.00 | 58 | 1013.0 |
| 20260902013836 | 29 | 105 | 3.2 | 11.3 | 0.00 | 0.00 | 0.00 | 57 | 1013.0 |
| 20260902013322 | 29 | 105 | 4.8 | 11.3 | 0.00 | 0.00 | 0.00 | 57 | 1013.0 |
| 20260902012829 | 30 | 94 | 4.8 | 12.9 | 0.00 | 0.00 | 0.00 | 57 | 1013.0 |
| 20260902012336 | 30 | 111 | 8.0 | 12.9 | 0.00 | 0.00 | 0.00 | 57 | 1013.0 |
| 20260902011839 | 30 | 121 | 4.8 | 14.5 | 0.00 | 0.00 | 0.00 | 56 | 1012.9 |
| 20260902011323 | 30 | 118 | 8.0 | 14.5 | 0.00 | 0.00 | 0.00 | 56 | 1013.0 |
| 20260902010829 | 30 | 105 | 6.4 | 14.5 | 0.00 | 0.00 | 0.00 | 56 | 1013.0 |
| 20260902010334 | 30 | 72 | 9.7 | 19.3 | 0.00 | 0.00 | 0.00 | 55 | 1013.1 |
| 20260902005846 | 30 | 102 | 8.0 | 19.3 | 0.00 | 0.00 | 0.00 | 55 | 1013.0 |
| 20260902005326 | 30 | 86 | 11.3 | 19.3 | 0.00 | 0.00 | 0.00 | 55 | 1013.0 |
| 20260902004833 | 30 | 89 | 12.9 | 19.3 | 0.00 | 0.00 | 0.00 | 54 | 1012.9 |
| 20260902004338 | 31 | 115 | 9.7 | 25.7 | 0.00 | 0.00 | 0.00 | 54 | 1012.8 |
| 20260902003823 | 31 | 115 | 12.9 | 25.7 | 0.00 | 0.00 | 0.00 | 53 | 1012.7 |
| 20260902003327 | 31 | 120 | 9.7 | 20.9 | 0.00 | 0.00 | 0.00 | 53 | 1012.6 |
| 20260902002835 | 31 | 98 | 12.9 | 20.9 | 0.00 | 0.00 | 0.00 | 53 | 1012.6 |
| 20260902002321 | 31 | 92 | 8.0 | 29.0 | 0.00 | 0.00 | 0.00 | 53 | 1012.6 |
| 20260902001828 | 31 | 136 | 9.7 | 29.0 | 0.00 | 0.00 | 0.00 | 52 | 1012.6 |
| 20260902001329 | 32 | 111 | 11.3 | 24.1 | 0.00 | 0.00 | 0.00 | 52 | 1012.5 |
| 20260902000902 | 32 | 109 | 12.9 | 24.1 | 0.00 | 0.00 | 0.00 | 52 | 1012.5 |
| 20260902000344 | 32 | 86 | 11.3 | 27.4 | 0.00 | 0.00 | 0.00 | 51 | 1012.3 |
| 20260901235824 | 32 | 138 | 14.5 | 25.7 | 0.00 | 0.00 | 0.00 | 51 | 1012.3 |
| 20260901235325 | 33 | 108 | 12.9 | 33.8 | 0.00 | 0.00 | 0.00 | 51 | 1012.3 |
| 20260901234850 | 33 | 135 | 14.5 | 33.8 | 0.00 | 0.00 | 0.00 | 51 | 1012.2 |
| 20260901234334 | 33 | 140 | 17.7 | 33.8 | 0.00 | 0.00 | 0.00 | 51 | 1012.2 |
| 20260901233845 | 34 | 132 | 17.7 | 32.2 | 0.00 | 0.00 | 0.00 | 51 | 1012.2 |
| 20260901233329 | 35 | 117 | 14.5 | 32.2 | 0.00 | 0.00 | 0.00 | 51 | 1012.1 |
| 20260901232836 | 35 | 101 | 12.9 | 20.9 | 0.00 | 0.00 | 0.00 | 51 | 1012.1 |
| 20260901232320 | 35 | 96 | 9.7 | 17.7 | 0.00 | 0.00 | 0.00 | 51 | 1012.0 |
| 20260901231826 | 35 | 118 | 9.7 | 14.5 | 0.00 | 0.00 | 0.00 | 52 | 1012.1 |
| 20260901231333 | 35 | 84 | 8.0 | 17.7 | 0.00 | 0.00 | 0.00 | 52 | 1012.1 |
| 20260901230822 | 35 | 126 | 11.3 | 17.7 | 0.00 | 0.00 | 0.00 | 52 | 1012.1 |
| 20260901230327 | 35 | 80 | 6.4 | 17.7 | 0.00 | 0.00 | 0.00 | 52 | 1012.1 |
| 20260901225836 | 35 | 90 | 8.0 | 19.3 | 0.00 | 0.00 | 0.00 | 52 | 1012.1 |
| 20260901225322 | 35 | 113 | 11.3 | 20.9 | 0.00 | 0.00 | 0.00 | 52 | 1012.1 |
| 20260901224827 | 35 | 84 | 11.3 | 17.7 | 0.00 | 0.00 | 0.00 | 52 | 1012.1 |
| 20260901224334 | 35 | 80 | 8.0 | 17.7 | 0.00 | 0.00 | 0.00 | 52 | 1012.1 |
| 20260901223819 | 35 | 63 | 6.4 | 16.1 | 0.00 | 0.00 | 0.00 | 52 | 1012.2 |
| 20260901223322 | 35 | 126 | 3.2 | 11.3 | 0.00 | 0.00 | 0.00 | 52 | 1012.2 |
| 20260901222831 | 35 | 74 | 4.8 | 6.4 | 0.00 | 0.00 | 0.00 | 52 | 1012.3 |
| 20260901222318 | 35 | 73 | 4.8 | 8.0 | 0.00 | 0.00 | 0.00 | 52 | 1012.3 |
| 20260901221824 | 35 | 72 | 4.8 | 11.3 | 0.00 | 0.00 | 0.00 | 52 | 1012.2 |
| 20260901221351 | 35 | 92 | 6.4 | 11.3 | 0.00 | 0.00 | 0.00 | 52 | 1012.3 |
| 20260901220837 | 35 | 65 | 6.4 | 14.5 | 0.00 | 0.00 | 0.00 | 53 | 1012.3 |
| 20260901220323 | 35 | 75 | 6.4 | 14.5 | 0.00 | 0.00 | 0.00 | 53 | 1012.3 |
| 20260901215855 | 35 | 51 | 8.0 | 14.5 | 0.00 | 0.00 | 0.00 | 53 | 1012.3 |
| 20260901215320 | 35 | 55 | 8.0 | 14.5 | 0.00 | 0.00 | 0.00 | 53 | 1012.3 |
| 20260901214827 | 35 | 38 | 4.8 | 14.5 | 0.00 | 0.00 | 0.00 | 53 | 1012.4 |
| 20260901214332 | 35 | 49 | 6.4 | 19.3 | 0.00 | 0.00 | 0.00 | 53 | 1012.4 |
| 20260901213821 | 35 | 51 | 12.9 | 19.3 | 0.00 | 0.00 | 0.00 | 53 | 1012.4 |
| 20260901213328 | 35 | 49 | 11.3 | 19.3 | 0.00 | 0.00 | 0.00 | 54 | 1012.4 |
| 20260901212832 | 35 | 121 | 9.7 | 19.3 | 0.00 | 0.00 | 0.00 | 54 | 1012.4 |
| 20260901212319 | 35 | 111 | 9.7 | 24.1 | 0.00 | 0.00 | 0.00 | 54 | 1012.4 |
| 20260901211826 | 35 | 55 | 8.0 | 22.5 | 0.00 | 0.00 | 0.00 | 54 | 1012.4 |
| 20260901211326 | 35 | 60 | 9.7 | 24.1 | 0.00 | 0.00 | 0.00 | 55 | 1012.5 |
| 20260901210834 | 36 | 77 | 14.5 | 24.1 | 0.00 | 0.00 | 0.00 | 55 | 1012.5 |
| 20260901210345 | 36 | 93 | 14.5 | 24.1 | 0.00 | 0.00 | 0.00 | 56 | 1012.5 |
| 20260901205847 | 36 | 32 | 9.7 | 25.7 | 0.00 | 0.00 | 0.00 | 56 | 1012.6 |
| 20260901205350 | 36 | 69 | 11.3 | 25.7 | 0.00 | 0.00 | 0.00 | 56 | 1012.8 |
| 20260901204835 | 35 | 87 | 9.7 | 20.9 | 0.00 | 0.00 | 0.00 | 57 | 1012.8 |
| 20260901204347 | 35 | 69 | 14.5 | 24.1 | 0.00 | 0.00 | 0.00 | 57 | 1013.1 |
| 20260901203820 | 35 | 96 | 12.9 | 27.4 | 0.00 | 0.00 | 0.00 | 57 | 1013.1 |
| 20260901203333 | 36 | 41 | 16.1 | 27.4 | 0.00 | 0.00 | 0.00 | 58 | 1013.2 |
| 20260901202837 | 35 | 65 | 9.7 | 24.1 | 0.00 | 0.00 | 0.00 | 59 | 1013.2 |
| 20260901202321 | 35 | 107 | 6.4 | 25.7 | 0.00 | 0.00 | 0.00 | 59 | 1013.4 |
| 20260901201845 | 35 | 85 | 12.9 | 25.7 | 0.00 | 0.00 | 0.00 | 59 | 1013.5 |
| 20260901201328 | 35 | 85 | 11.3 | 22.5 | 0.00 | 0.00 | 0.00 | 60 | 1013.6 |
| 20260901200839 | 35 | 104 | 12.9 | 29.0 | 0.00 | 0.00 | 0.00 | 61 | 1013.6 |
| 20260901200341 | 35 | 69 | 14.5 | 29.0 | 0.00 | 0.00 | 0.00 | 61 | 1013.5 |
| 20260901195824 | 35 | 69 | 9.7 | 25.7 | 0.00 | 0.00 | 0.00 | 61 | 1013.5 |
| 20260901195325 | 35 | 54 | 11.3 | 25.7 | 0.00 | 0.00 | 0.00 | 61 | 1013.5 |
| 20260901194835 | 34 | 104 | 6.4 | 16.1 | 0.00 | 0.00 | 0.00 | 62 | 1013.6 |
| 20260901194343 | 34 | 80 | 8.0 | 16.1 | 0.00 | 0.00 | 0.00 | 62 | 1013.6 |
| 20260901193825 | 34 | 63 | 11.3 | 16.1 | 0.00 | 0.00 | 0.00 | 62 | 1013.7 |
| 20260901193329 | 34 | 59 | 8.0 | 12.9 | 0.00 | 0.00 | 0.00 | 63 | 1013.7 |
| 20260901192835 | 34 | 41 | 4.8 | 16.1 | 0.00 | 0.00 | 0.00 | 63 | 1013.8 |
| 20260901192321 | 34 | 61 | 4.8 | 20.9 | 0.00 | 0.00 | 0.00 | 64 | 1013.7 |
| 20260901191843 | 34 | 19 | 11.3 | 20.9 | 0.00 | 0.00 | 0.00 | 64 | 1013.7 |
| 20260901191349 | 34 | 119 | 8.0 | 19.3 | 0.00 | 0.00 | 0.00 | 65 | 1013.7 |
| 20260901190831 | 34 | 144 | 4.8 | 20.9 | 0.00 | 0.00 | 0.00 | 66 | 1013.8 |
| 20260901190336 | 33 | 101 | 9.7 | 22.5 | 0.00 | 0.00 | 0.00 | 66 | 1014.0 |
| 20260901185822 | 33 | 55 | 12.9 | 22.5 | 0.00 | 0.00 | 0.00 | 66 | 1013.9 |
| 20260901185327 | 33 | 53 | 12.9 | 22.5 | 0.00 | 0.00 | 0.00 | 67 | 1014.1 |
| 20260901184826 | 33 | 52 | 12.9 | 19.3 | 0.00 | 0.00 | 0.00 | 67 | 1014.2 |
| 20260901184403 | 33 | 105 | 11.3 | 16.1 | 0.00 | 0.00 | 0.00 | 67 | 1014.2 |
| 20260901183825 | 33 | 53 | 3.2 | 16.1 | 0.00 | 0.00 | 0.00 | 68 | 1014.4 |
| 20260901183347 | 33 | 30 | 6.4 | 12.9 | 0.00 | 0.00 | 0.00 | 68 | 1014.5 |
| 20260901182858 | 33 | 66 | 1.6 | 19.3 | 0.00 | 0.00 | 0.00 | 69 | 1014.5 |
| 20260901182321 | 33 | 5 | 11.3 | 19.3 | 0.00 | 0.00 | 0.00 | 69 | 1014.8 |
| 20260901181827 | 33 | 5 | 9.7 | 19.3 | 0.00 | 0.00 | 0.00 | 69 | 1014.8 |
| 20260901181332 | 33 | 360 | 9.7 | 19.3 | 0.00 | 0.00 | 0.00 | 69 | 1014.9 |
| 20260901180820 | 33 | 64 | 6.4 | 16.1 | 0.00 | 0.00 | 0.00 | 70 | 1015.0 |
| 20260901180327 | 33 | 81 | 8.0 | 17.7 | 0.00 | 0.00 | 0.00 | 71 | 1015.0 |
| 20260901175836 | 33 | 52 | 9.7 | 22.5 | 0.00 | 0.00 | 0.00 | 71 | 1015.2 |
| 20260901175340 | 33 | 42 | 12.9 | 22.5 | 0.00 | 0.00 | 0.00 | 72 | 1015.3 |
| 20260901174821 | 33 | 40 | 4.8 | 19.3 | 0.00 | 0.00 | 0.00 | 72 | 1015.4 |
| 20260901174329 | 33 | 94 | 11.3 | 22.5 | 0.00 | 0.00 | 0.00 | 73 | 1015.5 |
| 20260901173336 | 32 | 92 | 12.9 | 20.9 | 0.00 | 0.00 | 0.00 | 74 | 1015.6 |
| 20260901172824 | 32 | 87 | 14.5 | 20.9 | 0.00 | 0.00 | 0.00 | 74 | 1015.7 |
| 20260901172326 | 32 | 76 | 14.5 | 20.9 | 0.00 | 0.00 | 0.00 | 74 | 1015.6 |
| 20260901171830 | 32 | 83 | 11.3 | 17.7 | 0.00 | 0.00 | 0.00 | 74 | 1015.8 |
| 20260901171334 | 32 | 69 | 6.4 | 12.9 | 0.00 | 0.00 | 0.00 | 75 | 1015.9 |
| 20260901170820 | 32 | 343 | 4.8 | 16.1 | 0.00 | 0.00 | 0.00 | 75 | 1015.9 |
| 20260901170332 | 32 | 78 | 8.0 | 14.5 | 0.00 | 0.00 | 0.00 | 76 | 1016.0 |
| 20260901165838 | 32 | 53 | 4.8 | 16.1 | 0.00 | 0.00 | 0.00 | 76 | 1016.1 |
| 20260901165342 | 32 | 71 | 9.7 | 20.9 | 0.00 | 0.00 | 0.00 | 77 | 1016.1 |
| 20260901164848 | 32 | 50 | 3.2 | 22.5 | 0.00 | 0.00 | 0.00 | 77 | 1016.1 |
| 20260901164329 | 32 | 91 | 8.0 | 22.5 | 0.00 | 0.00 | 0.00 | 77 | 1016.1 |
| 20260901163904 | 32 | 347 | 3.2 | 17.7 | 0.00 | 0.00 | 0.00 | 78 | 1016.1 |